TimeCST,TemperatureF,Dew PointF,Humidity,Sea Level PressureIn,VisibilityMPH,Wind Direction,Wind SpeedMPH,Gust SpeedMPH,PrecipitationIn,Events,Conditions,WindDirDegrees,DateUTC
12:12 AM,5.0,1.4,85,30.32,10.0,Calm,Calm,-,N/A,,Clear,0,2002-01-01 06:12:00
12:30 AM,5.0,-2.2,72,30.33,10.0,Calm,Calm,-,N/A,,Clear,0,2002-01-01 06:30:00
12:52 AM,5.0,-2.2,72,30.33,10.0,Calm,Calm,-,N/A,,Clear,0,2002-01-01 06:52:00
1:12 AM,5.0,-0.4,78,30.33,10.0,Calm,Calm,-,N/A,,Clear,0,2002-01-01 07:12:00
1:30 AM,3.2,-2.2,78,30.34,10.0,Calm,Calm,-,N/A,,Clear,0,2002-01-01 07:30:00
1:52 AM,3.2,-2.2,78,30.35,10.0,North,3.5,-,N/A,,Clear,360,2002-01-01 07:52:00
2:12 AM,3.2,-2.2,78,30.36,10.0,North,5.8,-,N/A,,Clear,360,2002-01-01 08:12:00
2:32 AM,3.2,-0.4,85,30.36,10.0,WNW,5.8,-,N/A,,Clear,300,2002-01-01 08:32:00
2:54 AM,3.2,-4.0,72,30.36,10.0,WNW,5.8,-,N/A,,Clear,300,2002-01-01 08:54:00
3:10 AM,3.2,-0.4,85,30.35,10.0,North,6.9,-,N/A,,Clear,360,2002-01-01 09:10:00
3:32 AM,3.2,-2.2,78,30.35,10.0,WNW,6.9,-,N/A,,Clear,300,2002-01-01 09:32:00
4:12 AM,3.2,-2.2,78,30.35,10.0,WNW,5.8,-,N/A,,Clear,290,2002-01-01 10:12:00
4:32 AM,3.2,-2.2,78,30.35,10.0,West,5.8,-,N/A,,Clear,270,2002-01-01 10:32:00
4:50 AM,1.4,-2.2,85,30.35,10.0,WNW,6.9,-,N/A,,Clear,290,2002-01-01 10:50:00
5:13 AM,3.2,-2.2,78,30.35,10.0,WNW,8.1,-,N/A,,Clear,300,2002-01-01 11:13:00
5:30 AM,3.2,-2.2,78,30.35,10.0,WNW,6.9,-,N/A,,Clear,290,2002-01-01 11:30:00
5:52 AM,3.2,-0.4,85,30.35,10.0,WNW,9.2,-,N/A,,Clear,290,2002-01-01 11:52:00
6:32 AM,3.2,-2.2,78,30.36,10.0,West,6.9,-,N/A,,Clear,280,2002-01-01 12:32:00
6:53 AM,3.2,-2.2,78,30.37,10.0,WNW,6.9,-,N/A,,Clear,290,2002-01-01 12:53:00
7:10 AM,3.2,-0.4,85,30.37,10.0,WNW,5.8,-,N/A,,Clear,290,2002-01-01 13:10:00
7:32 AM,3.2,-2.2,78,30.38,10.0,West,4.6,-,N/A,,Clear,280,2002-01-01 13:32:00
7:52 AM,1.4,-2.2,85,30.38,10.0,West,5.8,-,N/A,,Clear,270,2002-01-01 13:52:00
8:10 AM,3.2,-0.4,85,30.39,10.0,West,5.8,-,N/A,,Clear,280,2002-01-01 14:10:00
8:54 AM,8.6,3.2,79,30.41,10.0,WNW,4.6,-,N/A,,Clear,290,2002-01-01 14:54:00
9:32 AM,12.2,6.8,79,30.42,10.0,WNW,9.2,-,N/A,,Clear,300,2002-01-01 15:32:00
9:50 AM,10.4,5.0,79,30.42,10.0,WNW,9.2,-,N/A,,Clear,300,2002-01-01 15:50:00
10:33 AM,15.8,8.6,73,30.43,10.0,NW,10.4,-,N/A,,Clear,320,2002-01-01 16:33:00
10:55 AM,17.6,5.0,58,30.43,10.0,NW,12.7,-,N/A,,Clear,320,2002-01-01 16:55:00
11:10 AM,17.6,6.8,63,30.43,10.0,NNW,16.1,-,N/A,,Clear,330,2002-01-01 17:10:00
11:31 AM,17.6,5.0,58,30.43,10.0,NNW,10.4,16.1,N/A,,Clear,330,2002-01-01 17:31:00
11:50 AM,19.4,3.2,49,30.42,10.0,NNW,10.4,-,N/A,,Clear,340,2002-01-01 17:50:00
12:11 PM,19.4,3.2,49,30.41,10.0,NNW,12.7,16.1,N/A,,Clear,340,2002-01-01 18:11:00
12:32 PM,19.4,3.2,49,30.40,10.0,North,12.7,-,N/A,,Scattered Clouds,350,2002-01-01 18:32:00
12:50 PM,21.2,3.2,46,30.39,10.0,North,12.7,16.1,N/A,,Clear,350,2002-01-01 18:50:00
1:51 PM,19.4,3.2,49,30.40,10.0,NNW,13.8,17.3,N/A,,Scattered Clouds,340,2002-01-01 19:51:00
2:10 PM,19.4,1.4,46,30.40,10.0,North,13.8,-,N/A,,Clear,350,2002-01-01 20:10:00
2:33 PM,19.4,1.4,46,30.40,10.0,North,12.7,19.6,N/A,,Clear,360,2002-01-01 20:33:00
2:52 PM,19.4,1.4,46,30.41,10.0,North,15.0,-,N/A,,Clear,350,2002-01-01 20:52:00
3:10 PM,19.4,3.2,49,30.41,10.0,North,11.5,-,N/A,,Clear,350,2002-01-01 21:10:00
3:31 PM,19.4,3.2,49,30.42,10.0,North,12.7,16.1,N/A,,Clear,350,2002-01-01 21:31:00
3:50 PM,19.4,1.4,46,30.42,10.0,North,10.4,-,N/A,,Clear,360,2002-01-01 21:50:00
4:11 PM,17.6,1.4,49,30.42,10.0,North,15.0,-,N/A,,Clear,350,2002-01-01 22:11:00
4:30 PM,17.6,-0.4,45,30.43,10.0,North,12.7,-,N/A,,Clear,350,2002-01-01 22:30:00
4:52 PM,15.8,-0.4,49,30.43,10.0,North,10.4,-,N/A,,Clear,360,2002-01-01 22:52:00
5:13 PM,15.8,1.4,53,30.43,10.0,North,9.2,-,N/A,,Clear,350,2002-01-01 23:13:00
5:33 PM,12.2,-2.2,53,30.44,10.0,North,4.6,-,N/A,,Clear,350,2002-01-01 23:33:00
5:54 PM,12.2,1.4,62,30.44,10.0,NNW,4.6,-,N/A,,Clear,340,2002-01-01 23:54:00
6:10 PM,8.6,-4.0,57,30.44,10.0,NNW,6.9,-,N/A,,Clear,330,2002-01-02 00:10:00
6:30 PM,6.8,-0.4,72,30.45,10.0,NNW,6.9,-,N/A,,Clear,340,2002-01-02 00:30:00
7:10 PM,6.8,-0.4,72,30.46,10.0,North,5.8,-,N/A,,Clear,350,2002-01-02 01:10:00
7:30 PM,6.8,-0.4,72,30.46,10.0,North,6.9,-,N/A,,Scattered Clouds,350,2002-01-02 01:30:00
7:53 PM,8.6,1.4,73,30.47,10.0,Calm,Calm,-,N/A,,Clear,0,2002-01-02 01:53:00
8:10 PM,8.6,3.2,79,30.47,10.0,North,5.8,-,N/A,,Clear,350,2002-01-02 02:10:00
8:32 PM,10.4,6.8,85,30.48,10.0,North,10.4,-,N/A,,Clear,350,2002-01-02 02:32:00
9:12 PM,12.2,3.2,67,30.48,10.0,North,11.5,16.1,N/A,,Mostly Cloudy,350,2002-01-02 03:12:00
9:30 PM,10.4,3.2,73,30.49,10.0,NNW,9.2,-,N/A,,Scattered Clouds,340,2002-01-02 03:30:00
11:10 PM,12.2,5.0,73,30.50,10.0,North,12.7,18.4,N/A,,Overcast,350,2002-01-02 05:10:00
11:51 PM,12.2,6.8,79,30.50,10.0,North,12.7,-,N/A,,Overcast,350,2002-01-02 05:51:00